,,,PA_Meas_PMT16A,,PR_Meas_QMR101_102,,RH_Meas_QMH101,,SR_Meas_QMS101,,TA_Meas_QMH101,,GenWind,,GenWind,
date,time,status,PA,status,PR,status,RH,status,SR,status,TA,status,DirAvg,status,SpdAvg,
2009-01-26, 00:00:04,VALID,999.874,VALID,0,VALID,95.3779,VALID,0,VALID,24.1537,VALID,349,VALID,0.122266,
2009-01-26, 00:01:04,VALID,999.845,VALID,0,VALID,95.4084,VALID,0,VALID,24.1732,VALID,349,VALID,0,
2009-01-26, 00:02:04,VALID,999.867,VALID,0,VALID,95.4389,VALID,0,VALID,24.1732,VALID,349,VALID,0,
2009-01-26, 00:03:04,VALID,999.907,VALID,0,VALID,95.4542,VALID,0,VALID,24.1927,VALID,349,VALID,0,
2009-01-26, 00:04:04,VALID,999.906,VALID,0,VALID,95.4465,VALID,0,VALID,24.1714,VALID,349,VALID,0,
2009-01-26, 00:05:04,VALID,999.907,VALID,0,VALID,95.4771,VALID,0,VALID,24.1909,VALID,349,VALID,0,
2009-01-26, 00:06:04,VALID,999.938,VALID,0,VALID,95.4694,VALID,0,VALID,24.1909,VALID,349,VALID,0,
2009-01-26, 00:07:04,VALID,999.917,VALID,0,VALID,95.4237,VALID,0,VALID,24.1696,VALID,349,VALID,0.00078125,
2009-01-26, 00:08:04,VALID,999.912,VALID,0,VALID,95.3855,VALID,0,VALID,24.15,VALID,349,VALID,0.481641,
2009-01-26, 00:09:04,VALID,999.877,VALID,0,VALID,95.4313,VALID,0,VALID,24.1714,VALID,349,VALID,0.620313,
2009-01-26, 00:10:04,VALID,999.843,VALID,0,VALID,95.4084,VALID,0.112286,VALID,24.1324,VALID,349,VALID,0.684375,
2009-01-26, 00:11:04,VALID,999.831,VALID,0,VALID,95.4008,VALID,0,VALID,24.111,VALID,349,VALID,0.523438,
2009-01-26, 00:12:04,VALID,999.832,VALID,0,VALID,95.4008,VALID,0.112286,VALID,24.1324,VALID,349,VALID,0.414844,
2009-01-26, 00:13:04,VALID,999.831,VALID,0,VALID,95.4084,VALID,0.112286,VALID,24.1324,VALID,349,VALID,0.353516,
2009-01-26, 00:14:04,VALID,999.863,VALID,0,VALID,95.3931,VALID,0,VALID,24.0933,VALID,349,VALID,0.323828,
2009-01-26, 00:15:04,VALID,999.901,VALID,0,VALID,95.4008,VALID,0,VALID,24.0738,VALID,349,VALID,0.346484,
2009-01-26, 00:16:04,VALID,999.931,VALID,0,VALID,95.4084,VALID,0,VALID,24.0738,VALID,349,VALID,0.424219,
2009-01-26, 00:17:04,VALID,999.947,VALID,0,VALID,95.4542,VALID,0,VALID,24.0738,VALID,349,VALID,0.411719,
2009-01-26, 00:18:04,VALID,999.964,VALID,0,VALID,95.5381,VALID,0,VALID,24.0738,VALID,349,VALID,0.596484,
2009-01-26, 00:19:04,VALID,999.973,VALID,0,VALID,95.5686,VALID,0,VALID,24.0933,VALID,349,VALID,0.73125,
2009-01-26, 00:20:04,VALID,999.987,VALID,0,VALID,95.6068,VALID,0,VALID,24.1128,VALID,43,VALID,1.10703,
2009-01-26, 00:21:04,VALID,1000.01,VALID,0,VALID,95.4847,VALID,0,VALID,24.0933,VALID,46,VALID,1.28125,
2009-01-26, 00:22:04,VALID,1000.02,VALID,0,VALID,95.4542,VALID,0,VALID,24.1128,VALID,46,VALID,1.13711,
2009-01-26, 00:23:04,VALID,1000.01,VALID,0,VALID,95.4542,VALID,0,VALID,24.1324,VALID,51,VALID,1.1125,
2009-01-26, 00:24:04,VALID,999.985,VALID,0,VALID,95.4389,VALID,0,VALID,24.1519,VALID,51,VALID,1.05391,
2009-01-26, 00:25:04,VALID,1000.01,VALID,0,VALID,95.4389,VALID,0,VALID,24.1519,VALID,55,VALID,0.966016,
2009-01-26, 00:26:04,VALID,1000.01,VALID,0,VALID,95.4008,VALID,0.112286,VALID,24.1714,VALID,58,VALID,0.904297,
2009-01-26, 00:27:04,VALID,1000,VALID,0,VALID,95.4084,VALID,0,VALID,24.1909,VALID,53,VALID,0.982422,
2009-01-26, 00:28:04,VALID,1000.01,VALID,0,VALID,95.4389,VALID,0,VALID,24.2104,VALID,58,VALID,1.0582,
2009-01-26, 00:29:04,VALID,1000.01,VALID,0,VALID,95.4084,VALID,0,VALID,24.2104,VALID,58,VALID,1.02227,
2009-01-26, 00:30:04,VALID,999.972,VALID,0,VALID,95.416,VALID,0,VALID,24.2299,VALID,53,VALID,1.07461,
2009-01-26, 00:31:04,VALID,999.93,VALID,0,VALID,95.3703,VALID,0,VALID,24.2299,VALID,51,VALID,1.12383,
2009-01-26, 00:32:04,VALID,999.939,VALID,0,VALID,95.3321,VALID,0,VALID,24.2299,VALID,54,VALID,1.1168,
2009-01-26, 00:33:04,VALID,999.916,VALID,0,VALID,95.2634,VALID,0.112286,VALID,24.2495,VALID,57,VALID,1.08047,
2009-01-26, 00:34:04,VALID,999.879,VALID,0,VALID,95.21,VALID,0,VALID,24.2299,VALID,57,VALID,0.834766,
2009-01-26, 00:35:04,VALID,999.856,VALID,0,VALID,95.1795,VALID,0,VALID,24.2495,VALID,58,VALID,0.721484,
2009-01-26, 00:36:04,VALID,999.843,VALID,0,VALID,95.149,VALID,0,VALID,24.2495,VALID,58,VALID,0.775,
2009-01-26, 00:37:04,VALID,999.788,VALID,0,VALID,95.1108,VALID,0.112286,VALID,24.2495,VALID,57,VALID,0.782422,
2009-01-26, 00:38:04,VALID,999.708,VALID,0,VALID,95.0956,VALID,0,VALID,24.2281,VALID,45,VALID,0.594531,
2009-01-26, 00:39:04,VALID,999.665,VALID,0,VALID,95.0651,VALID,0,VALID,24.2299,VALID,34,VALID,0.583203,
2009-01-26, 00:40:04,VALID,999.62,VALID,0,VALID,95.0651,VALID,0,VALID,24.2104,VALID,34,VALID,0.419531,
2009-01-26, 00:41:04,VALID,999.511,VALID,0,VALID,95.0498,VALID,0,VALID,24.2104,VALID,33,VALID,0.394141,
2009-01-26, 00:42:04,VALID,999.509,VALID,0,VALID,95.0803,VALID,0,VALID,24.1909,VALID,26,VALID,0.0976563,
2009-01-26, 00:43:04,VALID,999.424,VALID,0,VALID,95.1108,VALID,0,VALID,24.1696,VALID,26,VALID,0.190234,
2009-01-26, 00:44:04,VALID,999.398,VALID,0,VALID,95.149,VALID,0,VALID,24.1909,VALID,26,VALID,0.0621094,
2009-01-26, 00:45:04,VALID,999.363,VALID,0,VALID,95.149,VALID,0,VALID,24.1909,VALID,26,VALID,0,
2009-01-26, 00:46:04,VALID,999.314,VALID,0,VALID,95.1871,VALID,0,VALID,24.1714,VALID,26,VALID,0.0777344,
2009-01-26, 00:47:04,VALID,999.286,VALID,0,VALID,95.2177,VALID,0,VALID,24.1909,VALID,26,VALID,0.371875,
2009-01-26, 00:48:04,VALID,999.283,VALID,0,VALID,95.2482,VALID,0,VALID,24.1714,VALID,26,VALID,0.435937,
2009-01-26, 00:49:04,VALID,999.276,VALID,0,VALID,95.1948,VALID,0,VALID,24.1909,VALID,26,VALID,0.323828,
2009-01-26, 00:50:04,VALID,999.257,VALID,0,VALID,95.1795,VALID,0,VALID,24.1909,VALID,26,VALID,0.226172,
2009-01-26, 00:51:04,VALID,999.283,VALID,0,VALID,95.1643,VALID,0,VALID,24.1909,VALID,26,VALID,0.140625,
2009-01-26, 00:52:04,VALID,999.268,VALID,0,VALID,95.1185,VALID,0,VALID,24.1927,VALID,26,VALID,0,
2009-01-26, 00:53:04,VALID,999.277,VALID,0,VALID,95.1337,VALID,0,VALID,24.1519,VALID,26,VALID,0,
2009-01-26, 00:54:04,VALID,999.265,VALID,0,VALID,95.1261,VALID,0,VALID,24.15,VALID,26,VALID,0.134766,
2009-01-26, 00:55:04,VALID,999.277,VALID,0,VALID,95.1719,VALID,0,VALID,24.1519,VALID,26,VALID,0.0078125,
2009-01-26, 00:56:04,VALID,999.299,VALID,0,VALID,95.21,VALID,0,VALID,24.1714,VALID,26,VALID,0.224219,
2009-01-26, 00:57:04,VALID,999.328,VALID,0,VALID,95.1871,VALID,0,VALID,24.1519,VALID,26,VALID,0.348437,
2009-01-26, 00:58:04,VALID,999.33,VALID,0,VALID,95.1643,VALID,0,VALID,24.1519,VALID,26,VALID,0.528906,
2009-01-26, 00:59:04,VALID,999.357,VALID,0,VALID,95.1337,VALID,0,VALID,24.1519,VALID,32,VALID,0.656641,
2009-01-26, 01:00:04,VALID,999.385,VALID,0,VALID,95.0956,VALID,0,VALID,24.1714,VALID,32,VALID,0.702344,
2009-01-26, 01:01:04,VALID,999.415,VALID,0,VALID,95.0422,VALID,0,VALID,24.1714,VALID,41,VALID,0.766797,
2009-01-26, 01:02:04,VALID,999.428,VALID,0,VALID,95.0498,VALID,0,VALID,24.1714,VALID,56,VALID,0.824219,
2009-01-26, 01:03:04,VALID,999.448,VALID,0,VALID,95.0269,VALID,0.112286,VALID,24.1909,VALID,58,VALID,0.969531,
2009-01-26, 01:04:04,VALID,999.493,VALID,0,VALID,94.9964,VALID,0,VALID,24.2318,VALID,58,VALID,1.16016,
2009-01-26, 01:05:04,VALID,999.517,VALID,0,VALID,94.9811,VALID,0,VALID,24.2299,VALID,60,VALID,1.15937,
2009-01-26, 01:06:04,VALID,999.56,VALID,0,VALID,94.9201,VALID,0,VALID,24.2104,VALID,66,VALID,1.14336,
2009-01-26, 01:07:04,VALID,999.563,VALID,0,VALID,94.9354,VALID,0,VALID,24.2104,VALID,69,VALID,1.14766,
2009-01-26, 01:08:04,VALID,999.518,VALID,0,VALID,94.9506,VALID,0,VALID,24.1891,VALID,69,VALID,0.951563,
2009-01-26, 01:09:04,VALID,999.514,VALID,0,VALID,94.9583,VALID,0,VALID,24.2104,VALID,69,VALID,0.923047,
2009-01-26, 01:10:04,VALID,999.459,VALID,0,VALID,94.9735,VALID,0,VALID,24.2104,VALID,70,VALID,0.749219,
2009-01-26, 01:11:04,VALID,999.39,VALID,0,VALID,94.9735,VALID,0,VALID,24.1909,VALID,69,VALID,0.653125,
2009-01-26, 01:12:04,VALID,999.336,VALID,0,VALID,95.0117,VALID,0,VALID,24.1909,VALID,69,VALID,0.403906,
2009-01-26, 01:13:04,VALID,999.256,VALID,0,VALID,95.0117,VALID,0.112286,VALID,24.1909,VALID,69,VALID,0.186328,
2009-01-26, 01:14:04,VALID,999.168,VALID,0,VALID,95.0269,VALID,0,VALID,24.1714,VALID,69,VALID,0,
2009-01-26, 01:15:04,VALID,999.13,VALID,0,VALID,95.0498,VALID,0,VALID,24.1714,VALID,69,VALID,0,
2009-01-26, 01:16:04,VALID,999.033,VALID,0,VALID,95.0651,VALID,0,VALID,24.1714,VALID,69,VALID,0,
2009-01-26, 01:17:04,VALID,999.019,VALID,0,VALID,95.1414,VALID,0,VALID,24.1909,VALID,69,VALID,0.303125,
2009-01-26, 01:18:04,VALID,999.015,VALID,0,VALID,95.1566,VALID,0,VALID,24.1696,VALID,115,VALID,0.235938,
2009-01-26, 01:19:04,VALID,999.044,VALID,0,VALID,95.1337,VALID,0,VALID,24.2104,VALID,115,VALID,0.289453,
2009-01-26, 01:20:04,VALID,999.114,VALID,0,VALID,95.1719,VALID,0,VALID,24.2104,VALID,143,VALID,0.589063,
2009-01-26, 01:21:04,VALID,999.171,VALID,0,VALID,95.1795,VALID,0,VALID,24.2708,VALID,141,VALID,0.713281,
2009-01-26, 01:22:04,VALID,999.222,VALID,0,VALID,95.0651,VALID,0,VALID,24.269,VALID,136,VALID,0.743359,
2009-01-26, 01:23:04,VALID,999.19,VALID,0,VALID,94.943,VALID,0,VALID,24.269,VALID,116,VALID,0.975781,
2009-01-26, 01:24:04,VALID,999.199,VALID,0,VALID,94.8743,VALID,0,VALID,24.269,VALID,120,VALID,0.705078,
2009-01-26, 01:25:04,VALID,999.203,VALID,0,VALID,94.8362,VALID,0,VALID,24.2885,VALID,130,VALID,0.692187,
2009-01-26, 01:26:04,VALID,999.171,VALID,0,VALID,94.8285,VALID,0,VALID,24.308,VALID,151,VALID,0.659375,
2009-01-26, 01:27:04,VALID,999.163,VALID,0,VALID,94.7904,VALID,0,VALID,24.308,VALID,160,VALID,0.740234,
2009-01-26, 01:28:04,VALID,999.162,VALID,0,VALID,94.8057,VALID,0,VALID,24.3275,VALID,160,VALID,0.748828,
2009-01-26, 01:29:04,VALID,999.181,VALID,0,VALID,94.7446,VALID,0,VALID,24.347,VALID,160,VALID,0.649609,
2009-01-26, 01:30:04,VALID,999.182,VALID,0,VALID,94.6836,VALID,0,VALID,24.347,VALID,159,VALID,0.764844,
2009-01-26, 01:31:04,VALID,999.155,VALID,0,VALID,94.676,VALID,0,VALID,24.3666,VALID,157,VALID,0.721094,
2009-01-26, 01:32:04,VALID,999.132,VALID,0,VALID,94.6531,VALID,0,VALID,24.3666,VALID,157,VALID,0.394531,
2009-01-26, 01:33:04,VALID,999.102,VALID,0,VALID,94.6226,VALID,0,VALID,24.3861,VALID,157,VALID,0.505078,
2009-01-26, 01:34:04,VALID,999.112,VALID,0,VALID,94.6302,VALID,0,VALID,24.3861,VALID,157,VALID,0.228125,
2009-01-26, 01:35:04,VALID,999.098,VALID,0,VALID,94.6226,VALID,0,VALID,24.3861,VALID,157,VALID,0.407031,
2009-01-26, 01:36:04,VALID,999.159,VALID,0,VALID,94.6607,VALID,0,VALID,24.4075,VALID,158,VALID,0.337891,
2009-01-26, 01:37:04,VALID,999.203,VALID,0,VALID,94.6531,VALID,0,VALID,24.3861,VALID,158,VALID,0.6375,
2009-01-26, 01:38:04,VALID,999.25,VALID,0,VALID,94.6531,VALID,0,VALID,24.427,VALID,158,VALID,0.634375,
2009-01-26, 01:39:04,VALID,999.313,VALID,0,VALID,94.5691,VALID,0,VALID,24.4251,VALID,150,VALID,0.873828,
2009-01-26, 01:40:04,VALID,999.35,VALID,0,VALID,94.3555,VALID,0,VALID,24.4446,VALID,154,VALID,1.14336,
2009-01-26, 01:41:04,VALID,999.407,VALID,0,VALID,94.2487,VALID,0,VALID,24.5051,VALID,149,VALID,0.634766,
2009-01-26, 01:42:04,VALID,999.466,VALID,0,VALID,94.0656,VALID,0,VALID,24.5032,VALID,145,VALID,0.570313,
2009-01-26, 01:43:04,VALID,999.481,VALID,0,VALID,94.0732,VALID,0,VALID,24.5441,VALID,145,VALID,0.238672,
2009-01-26, 01:44:04,VALID,999.466,VALID,0,VALID,94.0808,VALID,0,VALID,24.5441,VALID,145,VALID,0.0738281,
2009-01-26, 01:45:04,VALID,999.455,VALID,0,VALID,94.119,VALID,0,VALID,24.5227,VALID,145,VALID,0.0277344,
2009-01-26, 01:46:04,VALID,999.488,VALID,0,VALID,94.2029,VALID,0,VALID,24.5441,VALID,145,VALID,0.0246094,
2009-01-26, 01:47:04,VALID,999.504,VALID,0,VALID,94.2563,VALID,0,VALID,24.5441,VALID,145,VALID,0.00429688,
2009-01-26, 01:48:04,VALID,999.483,VALID,0,VALID,94.2105,VALID,0,VALID,24.5032,VALID,145,VALID,0,
2009-01-26, 01:49:04,VALID,999.461,VALID,0,VALID,94.2563,VALID,0,VALID,24.4837,VALID,145,VALID,0,
2009-01-26, 01:50:04,VALID,999.442,VALID,0,VALID,94.2182,VALID,0,VALID,24.4837,VALID,145,VALID,0,
2009-01-26, 01:51:04,VALID,999.436,VALID,0,VALID,94.2258,VALID,0,VALID,24.5032,VALID,145,VALID,0,
2009-01-26, 01:52:04,VALID,999.476,VALID,0,VALID,94.2182,VALID,0,VALID,24.5032,VALID,145,VALID,0,
2009-01-26, 01:53:04,VALID,999.451,VALID,0,VALID,94.2868,VALID,0,VALID,24.5032,VALID,145,VALID,0,
2009-01-26, 01:54:04,VALID,999.453,VALID,0,VALID,94.3021,VALID,0,VALID,24.4837,VALID,145,VALID,0,
2009-01-26, 01:55:04,VALID,999.479,VALID,0,VALID,94.3784,VALID,0,VALID,24.4837,VALID,145,VALID,0,
2009-01-26, 01:56:04,VALID,999.464,VALID,0,VALID,94.4242,VALID,0,VALID,24.5032,VALID,145,VALID,0,
2009-01-26, 01:57:04,VALID,999.468,VALID,0,VALID,94.4013,VALID,0,VALID,24.5246,VALID,145,VALID,0.192188,
2009-01-26, 01:58:04,VALID,999.416,VALID,0,VALID,94.3555,VALID,0,VALID,24.5227,VALID,145,VALID,0.0507813,
2009-01-26, 01:59:04,VALID,999.394,VALID,0,VALID,94.3479,VALID,0,VALID,24.5032,VALID,145,VALID,0.141797,
2009-01-26, 02:00:04,VALID,999.363,VALID,0,VALID,94.3326,VALID,0,VALID,24.5227,VALID,145,VALID,0.139844,
2009-01-26, 02:01:04,VALID,999.344,VALID,0,VALID,94.3174,VALID,0,VALID,24.5227,VALID,145,VALID,0.210547,
2009-01-26, 02:02:04,VALID,999.279,VALID,0,VALID,94.2945,VALID,0,VALID,24.5422,VALID,145,VALID,0.186328,
2009-01-26, 02:03:04,VALID,999.225,VALID,0,VALID,94.264,VALID,0,VALID,24.5422,VALID,145,VALID,0,
2009-01-26, 02:04:04,VALID,999.194,VALID,0,VALID,94.3326,VALID,0,VALID,24.5422,VALID,145,VALID,0,
2009-01-26, 02:05:04,VALID,999.154,VALID,0,VALID,94.2258,VALID,0,VALID,24.5422,VALID,145,VALID,0.391406,
2009-01-26, 02:06:04,VALID,999.171,VALID,0,VALID,94.1037,VALID,0,VALID,24.5618,VALID,145,VALID,0.59375,
2009-01-26, 02:07:04,VALID,999.169,VALID,0,VALID,93.8291,VALID,0,VALID,24.5813,VALID,127,VALID,0.813281,
2009-01-26, 02:08:04,VALID,999.176,VALID,0,VALID,93.7528,VALID,0,VALID,24.6398,VALID,130,VALID,0.502734,
2009-01-26, 02:09:04,VALID,999.181,VALID,0,VALID,93.5086,VALID,0,VALID,24.6398,VALID,130,VALID,0.703125,
2009-01-26, 02:10:04,VALID,999.19,VALID,0,VALID,93.3255,VALID,0,VALID,24.7003,VALID,129,VALID,0.818359,
2009-01-26, 02:11:04,VALID,999.188,VALID,0,VALID,93.3026,VALID,0,VALID,24.7179,VALID,124,VALID,0.597656,
2009-01-26, 02:12:04,VALID,999.177,VALID,0,VALID,93.2874,VALID,0,VALID,24.7179,VALID,95,VALID,0.653516,
2009-01-26, 02:13:04,VALID,999.175,VALID,0,VALID,93.2797,VALID,0,VALID,24.7179,VALID,91,VALID,0.757422,
2009-01-26, 02:14:04,VALID,999.175,VALID,0,VALID,93.2111,VALID,0,VALID,24.716,VALID,86,VALID,0.839453,
2009-01-26, 02:15:04,VALID,999.144,VALID,0,VALID,93.1882,VALID,0,VALID,24.7374,VALID,76,VALID,0.997266,
2009-01-26, 02:16:04,VALID,999.176,VALID,0,VALID,93.1653,VALID,0,VALID,24.7374,VALID,73,VALID,0.976563,
2009-01-26, 02:17:04,VALID,999.177,VALID,0,VALID,93.15,VALID,0,VALID,24.716,VALID,80,VALID,1.13477,
2009-01-26, 02:18:04,VALID,999.173,VALID,0,VALID,93.1729,VALID,0,VALID,24.7374,VALID,76,VALID,0.889063,
2009-01-26, 02:19:04,VALID,999.148,VALID,0,VALID,93.0432,VALID,0,VALID,24.7374,VALID,67,VALID,0.959375,
2009-01-26, 02:20:04,VALID,999.185,VALID,0,VALID,92.822,VALID,0,VALID,24.7374,VALID,67,VALID,1.0375,
2009-01-26, 02:21:04,VALID,999.141,VALID,0,VALID,92.9898,VALID,0,VALID,24.757,VALID,54,VALID,0.917578,
2009-01-26, 02:22:04,VALID,999.126,VALID,0,VALID,93.1271,VALID,0,VALID,24.757,VALID,46,VALID,0.933984,
2009-01-26, 02:23:04,VALID,999.141,VALID,0,VALID,93.3026,VALID,0,VALID,24.757,VALID,33,VALID,1.20859,
2009-01-26, 02:24:04,VALID,999.12,VALID,0,VALID,93.5468,VALID,0,VALID,24.757,VALID,19,VALID,1.85703,
2009-01-26, 02:25:04,VALID,999.084,VALID,0,VALID,93.707,VALID,0,VALID,24.7374,VALID,13,VALID,2.30117,
2009-01-26, 02:26:04,VALID,999.131,VALID,0,VALID,94.0045,VALID,0,VALID,24.7179,VALID,18,VALID,3.16484,
2009-01-26, 02:27:04,VALID,999.098,VALID,0,VALID,93.5544,VALID,0,VALID,24.6203,VALID,25,VALID,3.1457,
2009-01-26, 02:28:04,VALID,999.119,VALID,0,VALID,93.2492,VALID,0,VALID,24.5422,VALID,18,VALID,3.25664,
2009-01-26, 02:29:04,VALID,999.118,VALID,0,VALID,92.265,VALID,0,VALID,24.5227,VALID,20,VALID,3.12305,
2009-01-26, 02:30:04,VALID,999.15,VALID,0,VALID,92.2879,VALID,0,VALID,24.5618,VALID,9,VALID,2.22461,
2009-01-26, 02:31:04,VALID,999.138,VALID,0,VALID,91.1282,VALID,0,VALID,24.5013,VALID,6,VALID,3.31289,
2009-01-26, 02:32:04,VALID,999.145,VALID,0,VALID,90.4186,VALID,0,VALID,24.4446,VALID,358,VALID,4.70703,
2009-01-26, 02:33:04,VALID,999.121,VALID,0,VALID,90.3728,VALID,0,VALID,24.3666,VALID,8,VALID,4.00391,
2009-01-26, 02:34:04,VALID,999.138,VALID,0.5,VALID,90.7696,VALID,0,VALID,24.269,VALID,350,VALID,4.28086,
2009-01-26, 02:35:04,VALID,999.126,VALID,0,VALID,91.3952,VALID,0,VALID,24.1324,VALID,359,VALID,3.47969,
2009-01-26, 02:36:04,VALID,999.121,VALID,0,VALID,91.9064,VALID,0,VALID,24.0543,VALID,350,VALID,3.32539,
2009-01-26, 02:37:04,VALID,999.079,VALID,0.5,VALID,92.5473,VALID,0,VALID,23.9762,VALID,353,VALID,2.41992,
2009-01-26, 02:38:04,VALID,999.063,VALID,0,VALID,92.9517,VALID,0,VALID,23.9372,VALID,345,VALID,1.91797,
2009-01-26, 02:39:04,VALID,999.062,VALID,0,VALID,93.3942,VALID,0,VALID,23.8982,VALID,349,VALID,1.70586,
2009-01-26, 02:40:04,VALID,999.099,VALID,0,VALID,93.7223,VALID,0,VALID,23.8591,VALID,358,VALID,1.69492,
2009-01-26, 02:41:04,VALID,999.09,VALID,0.5,VALID,93.6994,VALID,0,VALID,23.8201,VALID,355,VALID,2.21133,
2009-01-26, 02:42:04,VALID,999.072,VALID,0,VALID,93.913,VALID,0,VALID,23.8201,VALID,355,VALID,1.86523,
2009-01-26, 02:43:04,VALID,999.069,VALID,0.5,VALID,93.974,VALID,0,VALID,23.8201,VALID,347,VALID,2.21289,
2009-01-26, 02:44:04,VALID,999.066,VALID,0.5,VALID,94.1571,VALID,0,VALID,23.8201,VALID,331,VALID,1.81484,
2009-01-26, 02:45:04,VALID,999.027,VALID,0,VALID,94.2792,VALID,0,VALID,23.7811,VALID,329,VALID,1.72148,
2009-01-26, 02:46:04,VALID,999.031,VALID,0.5,VALID,94.2411,VALID,0,VALID,23.7616,VALID,346,VALID,1.86016,
2009-01-26, 02:47:04,VALID,999.032,VALID,0,VALID,94.5081,VALID,0,VALID,23.7616,VALID,313,VALID,1.05664,
2009-01-26, 02:48:04,VALID,998.972,VALID,0,VALID,94.4852,VALID,0,VALID,23.7225,VALID,343,VALID,1.65547,
2009-01-26, 02:49:04,VALID,998.972,VALID,0.5,VALID,94.5005,VALID,0,VALID,23.742,VALID,332,VALID,1.31875,
2009-01-26, 02:50:04,VALID,998.937,VALID,0,VALID,94.5234,VALID,0,VALID,23.742,VALID,325,VALID,1.31914,
2009-01-26, 02:51:04,VALID,998.944,VALID,0.5,VALID,94.6149,VALID,0,VALID,23.742,VALID,339,VALID,1.18867,
2009-01-26, 02:52:04,VALID,998.9,VALID,0,VALID,94.6073,VALID,0,VALID,23.7225,VALID,340,VALID,1.55273,
2009-01-26, 02:53:04,VALID,998.916,VALID,0.5,VALID,94.6302,VALID,0,VALID,23.6835,VALID,334,VALID,1.88437,
2009-01-26, 02:54:04,VALID,998.849,VALID,0,VALID,94.7446,VALID,0,VALID,23.6835,VALID,329,VALID,1.61797,
2009-01-26, 02:55:04,VALID,998.848,VALID,0,VALID,94.8285,VALID,0,VALID,23.6427,VALID,314,VALID,1.40273,
2009-01-26, 02:56:04,VALID,998.829,VALID,0,VALID,94.9048,VALID,0,VALID,23.664,VALID,290,VALID,1.30273,
2009-01-26, 02:57:04,VALID,998.82,VALID,0,VALID,95.0345,VALID,0,VALID,23.6445,VALID,305,VALID,1.09141,
2009-01-26, 02:58:04,VALID,998.805,VALID,0,VALID,95.0727,VALID,0,VALID,23.6445,VALID,327,VALID,0.920703,
2009-01-26, 02:59:04,VALID,998.794,VALID,0,VALID,95.1414,VALID,0,VALID,23.664,VALID,299,VALID,1.07891,
2009-01-26, 03:00:04,VALID,998.796,VALID,0.5,VALID,95.1643,VALID,0,VALID,23.6445,VALID,295,VALID,1.425,
2009-01-26, 03:01:04,VALID,998.787,VALID,0,VALID,95.1795,VALID,0,VALID,23.6445,VALID,276,VALID,1.19961,
2009-01-26, 03:02:04,VALID,998.775,VALID,0,VALID,95.1795,VALID,0,VALID,23.664,VALID,286,VALID,0.876562,
2009-01-26, 03:03:04,VALID,998.757,VALID,0,VALID,95.1566,VALID,0,VALID,23.6445,VALID,256,VALID,0.948828,
2009-01-26, 03:04:04,VALID,998.759,VALID,0,VALID,95.2024,VALID,0,VALID,23.6445,VALID,255,VALID,0.509766,
2009-01-26, 03:05:04,VALID,998.755,VALID,0,VALID,95.2253,VALID,0,VALID,23.664,VALID,232,VALID,0.325391,
2009-01-26, 03:06:04,VALID,998.778,VALID,0,VALID,95.2634,VALID,0,VALID,23.664,VALID,148,VALID,0.882813,
2009-01-26, 03:07:04,VALID,998.808,VALID,0,VALID,95.2253,VALID,0,VALID,23.664,VALID,153,VALID,0.437891,
2009-01-26, 03:08:04,VALID,998.826,VALID,0,VALID,95.2253,VALID,0,VALID,23.664,VALID,150,VALID,0.554297,
2009-01-26, 03:09:04,VALID,998.861,VALID,0,VALID,95.2253,VALID,0,VALID,23.6835,VALID,123,VALID,0.596484,
2009-01-26, 03:10:04,VALID,998.83,VALID,0,VALID,95.1643,VALID,0,VALID,23.664,VALID,58,VALID,0.426562,
2009-01-26, 03:11:04,VALID,998.816,VALID,0,VALID,95.1643,VALID,0,VALID,23.6835,VALID,57,VALID,0.600391,
2009-01-26, 03:12:04,VALID,998.824,VALID,0,VALID,95.149,VALID,0,VALID,23.664,VALID,56,VALID,0.689062,
2009-01-26, 03:13:04,VALID,998.824,VALID,0,VALID,95.1414,VALID,0,VALID,23.6445,VALID,45,VALID,0.531641,
2009-01-26, 03:14:04,VALID,998.815,VALID,0,VALID,95.2024,VALID,0,VALID,23.6445,VALID,45,VALID,0.505078,
2009-01-26, 03:15:04,VALID,998.833,VALID,0,VALID,95.21,VALID,0,VALID,23.625,VALID,45,VALID,0.420312,
2009-01-26, 03:16:04,VALID,998.873,VALID,0,VALID,95.2711,VALID,0,VALID,23.625,VALID,45,VALID,0.0617188,
2009-01-26, 03:17:04,VALID,998.943,VALID,0,VALID,95.3016,VALID,0,VALID,23.6054,VALID,45,VALID,0.0566406,
2009-01-26, 03:18:04,VALID,998.957,VALID,0,VALID,95.4084,VALID,0,VALID,23.625,VALID,134,VALID,0.952734,
2009-01-26, 03:19:04,VALID,998.996,VALID,0,VALID,95.4389,VALID,0.112286,VALID,23.6427,VALID,134,VALID,1.01328,
2009-01-26, 03:20:04,VALID,999.029,VALID,0,VALID,95.4542,VALID,0,VALID,23.664,VALID,141,VALID,0.802734,
2009-01-26, 03:21:04,VALID,998.985,VALID,0,VALID,95.4771,VALID,0,VALID,23.664,VALID,145,VALID,0.752344,
2009-01-26, 03:22:04,VALID,998.975,VALID,0,VALID,95.4771,VALID,0,VALID,23.7048,VALID,151,VALID,0.610156,
2009-01-26, 03:23:04,VALID,998.952,VALID,0,VALID,95.4694,VALID,0,VALID,23.7243,VALID,163,VALID,0.357422,
2009-01-26, 03:24:04,VALID,998.893,VALID,0,VALID,95.4389,VALID,0,VALID,23.703,VALID,176,VALID,0.441016,
2009-01-26, 03:25:04,VALID,998.892,VALID,0,VALID,95.4313,VALID,0,VALID,23.703,VALID,208,VALID,0.516797,
2009-01-26, 03:26:04,VALID,998.863,VALID,0,VALID,95.4465,VALID,0,VALID,23.7243,VALID,208,VALID,0.419922,
2009-01-26, 03:27:04,VALID,998.862,VALID,0,VALID,95.5,VALID,0,VALID,23.7438,VALID,212,VALID,0.211719,
2009-01-26, 03:28:04,VALID,998.933,VALID,0,VALID,95.4771,VALID,0,VALID,23.7243,VALID,212,VALID,0.366797,
2009-01-26, 03:29:04,VALID,998.95,VALID,0,VALID,95.4618,VALID,0,VALID,23.7438,VALID,212,VALID,0.41875,
2009-01-26, 03:30:04,VALID,998.983,VALID,0,VALID,95.4465,VALID,0,VALID,23.703,VALID,197,VALID,0.427734,
2009-01-26, 03:31:04,VALID,998.99,VALID,0,VALID,95.4618,VALID,0,VALID,23.7243,VALID,197,VALID,0.24375,
2009-01-26, 03:32:04,VALID,999.016,VALID,0,VALID,95.4771,VALID,0,VALID,23.7225,VALID,197,VALID,0.291016,
2009-01-26, 03:33:04,VALID,999.037,VALID,0,VALID,95.4618,VALID,0,VALID,23.7243,VALID,197,VALID,0.180859,
2009-01-26, 03:34:04,VALID,999.079,VALID,0,VALID,95.4389,VALID,0,VALID,23.7243,VALID,197,VALID,0.179688,
2009-01-26, 03:35:04,VALID,999.113,VALID,0,VALID,95.4465,VALID,0,VALID,23.7438,VALID,197,VALID,0.246484,
2009-01-26, 03:36:04,VALID,999.095,VALID,0,VALID,95.4618,VALID,0,VALID,23.7634,VALID,190,VALID,0.446484,
2009-01-26, 03:37:04,VALID,999.086,VALID,0,VALID,95.5,VALID,0,VALID,23.7438,VALID,161,VALID,0.583203,
2009-01-26, 03:38:04,VALID,999.091,VALID,0,VALID,95.5228,VALID,0,VALID,23.7829,VALID,160,VALID,0.508203,
2009-01-26, 03:39:04,VALID,999.11,VALID,0,VALID,95.5076,VALID,0,VALID,23.8024,VALID,158,VALID,0.997266,
2009-01-26, 03:40:04,VALID,999.101,VALID,0,VALID,95.5,VALID,0,VALID,23.8219,VALID,155,VALID,1.03633,
2009-01-26, 03:41:04,VALID,999.087,VALID,0,VALID,95.4618,VALID,0,VALID,23.8201,VALID,152,VALID,0.797266,
2009-01-26, 03:42:04,VALID,999.093,VALID,0,VALID,95.4084,VALID,0,VALID,23.8219,VALID,153,VALID,0.585156,
2009-01-26, 03:43:04,VALID,999.088,VALID,0,VALID,95.3931,VALID,0,VALID,23.8006,VALID,154,VALID,0.334375,
2009-01-26, 03:44:04,VALID,999.106,VALID,0,VALID,95.3931,VALID,0,VALID,23.8006,VALID,173,VALID,0.398828,
2009-01-26, 03:45:04,VALID,999.135,VALID,0,VALID,95.4008,VALID,0,VALID,23.7811,VALID,173,VALID,0.183203,
2009-01-26, 03:46:04,VALID,999.117,VALID,0,VALID,95.3855,VALID,0,VALID,23.8024,VALID,173,VALID,0.199219,